Weather Roundup
Issued by NWS Chicago, IL

Home | Current Version | Previous Version | Graphics & Text | Print | Product List | Glossary On
Versions: 1 2 3 4 5 6 7 8 9 10 11 12 13 14 15 16 17 18 19 20 21 22 23 24 25 26 27 28 29 30 31 32 33 34 35 36 37 38 39 40 41 42 43 44 45 46 47 48 49 50
000
NZUS59 KLOT 010000
HRRLOT

CHICAGO AREA WEATHER ROUNDUP
NATIONAL WEATHER SERVICE CHICAGO/ROMEOVILLE IL
700 PM CDT FRI JUL 31 2015

NOTE: "FAIR" INDICATES FEW OR NO CLOUDS BELOW 12,000 FEET WITH NO
SIGNIFICANT WEATHER AND/OR OBSTRUCTIONS TO VISIBILITY.

* THESE STATIONS ARE NOT UNDER NWS QUALITY CONTROL. THEY ALSO MAY NOT
  REPORT WEATHER SUCH AS PRECIPITATION OR FOG.

ILZ005-006-012>014-019>023-010100-
NORTHEAST ILLINOIS

CITY           SKY/WX    TMP DP  RH WIND       PRES   REMARKS
OHARE          SUNNY     82  48  30 NW17      29.93S HX  81
6HR MIN TEMP:  82; 6HR MAX TEMP:  87;

MIDWAY         MOSUNNY   84  47  27 NW15      29.93S HX  82
6HR MIN TEMP:  84; 6HR MAX TEMP:  90;

AURORA         SUNNY     79  54  41 NW9       29.96S
6HR MIN TEMP:  79; 6HR MAX TEMP:  85;

WAUKEGAN       NOT AVBL
DUPAGE AIRPORT SUNNY     81  50  33 NW12      29.95S HX  80
6HR MIN TEMP:  81; 6HR MAX TEMP:  86;

WHEELING       SUNNY     81  45  28 NW15G23   29.94S HX  80
6HR MIN TEMP:  81; 6HR MAX TEMP:  87;

NORTHERLY IS     N/A     82  46  28 NW13        N/A  HX  80
$$

WIZ051-052-058>065-066-070>072-010100-
SOUTHEAST WISCONSIN

CITY           SKY/WX    TMP DP  RH WIND       PRES   REMARKS
MILWAUKEE      MOSUNNY   81  47  30 W18       29.92S HX  80
6HR MIN TEMP:  81; 6HR MAX TEMP:  84;

KENOSHA*       SUNNY     79  50  36 NW12      29.93S
RACINE*        MOSUNNY   80  49  33 NW10G21   29.94S
WAUKESHA       MOSUNNY   77  46  33 NW15      29.94F
$$

INZ001>003-010>013-019-020-010100-
NORTHWEST INDIANA

CITY           SKY/WX    TMP DP  RH WIND       PRES   REMARKS
GARY*          SUNNY     84  48  28 W12G28    29.93S HX  82
MICHIGAN CITY* NOT AVBL
RENSSELAER*    NOT AVBL
$$

LMZ740>746-010100-
SOUTHERN LAKE MICHIGAN

STATION/POSITION TIME  SKY/WX   TEMP WIND        PRES    VSBY
                                AIR  DIR/SP/G
                 (UTC)          (F)  (DEG/KT/KT) (MB)    (MI)
HARRISON CRIB    2300            81  300/ 17/ 22   N/A
BURNHAM HARBOR   2300            83  300/ 12/ 20   N/A
CALUMET HARBOR   2300            84  300/ 11/ 19   N/A
BURNS HARBOR     2300            77  330/  9/ 11 1013.9S
MICHIGAN CITY    2300            77  330/ 14/ 17   N/A
$$

ABBREVIATIONS USED IN REMARKS
   TC - TEMPERATURE IN CELSIUS
  WCI - WIND CHILL INDEX
   HX - HEAT INDEX
  VSB - VISIBILITY
$$


USA.gov is the U.S. government's official web portal to all federal, state and local government web resources and services.